Theta_e
317 318 318 319 319 321 323 323 324 322 321 321 321 321 322 322 321 319 317 316 315 314 313 312 312 312 306 300 303 310 322 319 309 307 303 301 295 293 290 291 292 290 292 295 295 294 293
316 317 317 317 317 317 319 321 321 321 321 320 320 320 320 321 321 319 318 316 314 313 312 312 311 313 299 297 308 310 311 307 306 303 302 300 296 297 294 293 291 294 294 293 294 295 293
317 318 318 317 318 319 318 318 319 320 321 320 320 320 320 320 320 319 318 316 315 312 312 311 311 308 298 302 308 304 308 300 301 299 296 299 299 297 297 294 297 295 290 292 294 293 293
315 317 319 318 318 318 318 318 319 320 320 321 321 320 318 319 318 318 317 316 313 313 312 311 310 304 296 310 307 307 302 301 303 302 301 300 299 297 294 296 294 290 290 285 293 294 295
312 315 316 317 317 317 317 318 318 318 319 320 320 319 318 317 316 316 316 314 313 312 312 312 303 300 298 314 302 306 304 299 301 301 300 303 299 293 293 287 285 287 282 286 290 296 293
311 313 315 315 316 316 316 316 317 317 318 318 319 319 318 316 316 315 313 312 310 308 307 306 306 298 303 304 305 304 301 300 297 298 298 296 291 287 286 283 279 282 283 282 285 292 290
311 312 312 312 315 314 315 316 318 317 317 317 318 318 318 317 315 312 308 306 301 299 297 301 301 301 305 308 304 302 304 299 299 293 288 292 286 283 286 287 288 287 285 284 287 291 290
311 312 311 311 311 313 312 314 314 316 317 317 317 317 317 317 313 311 307 303 304 301 295 302 303 303 307 308 303 304 303 296 294 288 288 286 283 290 292 291 289 288 286 285 287 291 289
311 310 310 309 309 311 313 313 313 312 313 315 316 316 317 314 311 307 305 305 305 304 294 298 302 303 305 306 301 302 303 297 293 290 289 284 288 294 292 289 288 288 286 285 285 287 286
310 309 309 309 309 310 311 311 313 312 311 312 315 315 313 310 307 305 303 309 309 304 285 291 297 301 306 306 300 308 306 299 292 290 289 288 293 291 290 289 289 283 289 288 286 282 277
309 308 308 308 308 306 309 310 311 312 311 311 314 313 310 312 304 303 307 308 304 300 273 291 296 304 304 300 295 295 301 297 293 290 290 287 288 287 286 288 290 286 290 287 285 280 279
308 308 308 308 308 308 308 309 310 311 310 310 313 311 310 306 304 304 308 306 302 285 276 291 293 292 294 294 293 293 294 294 294 290 289 289 291 289 288 290 290 290 286 285 283 280 274
308 308 308 307 307 307 308 310 309 310 310 310 312 311 310 307 302 305 305 300 287 280 292 289 288 291 290 290 291 289 288 286 283 280 280 285 287 290 291 285 288 286 281 274 273 273 273
307 307 307 306 306 306 307 307 308 309 309 309 311 310 310 307 308 305 303 293 281 287 288 294 291 290 286 289 289 289 286 283 286 284 281 279 278 286 290 286 284 283 282 276 272 273 274
306 306 306 306 306 306 306 306 307 308 309 309 309 307 303 307 307 306 295 284 282 287 292 291 292 286 286 289 288 287 285 284 287 286 281 280 281 288 289 289 288 284 279 284 279 278 274
305 306 305 305 305 305 305 305 306 307 307 308 299 300 299 305 306 301 292 287 289 294 295 294 287 290 283 286 286 285 284 289 287 290 289 285 278 286 288 289 287 285 287 277 278 273 271
304 305 305 305 304 304 305 305 305 305 307 307 295 294 298 305 303 294 285 287 292 296 296 293 290 290 289 286 286 284 286 289 290 288 288 284 282 281 285 283 281 282 279 281 280 278 272
303 304 304 304 304 304 304 304 304 305 306 303 296 286 299 303 288 285 285 290 295 294 297 294 295 293 288 289 287 286 286 290 290 288 283 285 281 276 280 286 287 284 282 282 275 275 276
302 302 303 303 303 303 303 303 303 304 305 298 291 289 299 299 284 284 287 290 293 293 293 293 293 294 291 286 283 287 287 290 290 287 284 285 279 273 277 280 285 282 285 286 283 279 275
301 301 302 302 302 302 302 302 303 303 304 298 289 283 288 291 288 287 285 287 287 295 293 295 294 294 289 286 289 285 285 289 290 288 294 289 281 277 274 277 281 278 281 282 282 274 276
300 301 301 301 301 302 302 302 302 303 303 298 290 284 286 282 284 287 287 287 286 287 294 294 292 292 287 283 286 284 286 284 288 291 286 283 278 276 279 282 282 280 279 280 276 280 276
299 300 300 300 300 301 301 302 302 302 303 294 286 285 286 282 287 287 288 286 286 288 289 289 290 293 291 285 286 283 284 282 282 285 283 283 276 273 269 282 281 278 280 280 280 280 277
299 299 299 300 300 301 301 301 301 302 301 291 294 293 287 285 285 285 285 286 287 290 292 293 291 290 286 287 289 288 289 288 287 284 281 279 275 271 270 280 281 276 278 278 278 281 281
299 299 299 299 300 300 300 300 300 301 301 294 293 293 287 281 284 284 286 288 287 289 286 292 293 289 291 292 291 290 288 288 287 286 286 279 277 276 274 276 270 278 285 284 282 283 283
298 298 299 299 299 300 300 300 301 301 302 294 293 293 288 280 286 286 287 287 288 290 288 288 292 294 292 289 284 281 279 282 284 286 284 285 279 275 272 274 278 280 283 282 280 280 283
298 298 298 298 299 299 300 300 301 300 301 296 293 298 294 285 284 290 287 288 284 284 287 288 295 294 290 285 282 276 275 278 279 281 286 284 283 277 276 274 271 279 286 288 286 273 284
297 298 298 298 298 299 299 300 301 301 301 297 292 297 293 287 289 291 286 286 289 286 284 287 289 290 291 282 280 278 277 284 279 278 280 280 280 277 277 275 278 285 287 289 272 275 284
297 298 298 298 298 299 299 300 300 300 301 297 293 298 292 289 288 293 295 288 289 287 282 286 286 286 283 281 280 279 279 283 283 285 282 280 278 278 279 275 273 285 285 279 281 284 284
298 298 298 298 298 298 299 300 300 301 301 300 289 299 299 292 290 293 294 297 294 294 287 287 285 285 284 282 283 284 280 282 281 278 288 280 282 277 279 278 281 283 283 285 286 283 283
Wind_Speed
6 8 7 7 6 4 4 4 11 12 13 13 13 13 12 12 11 10 9 7 7 6 9 13 16 19 9 5 7 3 4 2 5 4 4 4 4 3 3 5 7 5 3 7 7 6 6
8 11 12 10 10 12 12 7 7 8 12 13 13 12 12 12 11 11 11 9 8 4 7 11 14 15 2 4 2 4 2 0 3 3 5 4 5 8 5 4 1 5 8 8 8 11 4
9 11 13 13 12 14 15 13 13 11 9 13 13 13 13 13 13 12 11 8 8 4 5 10 11 4 2 13 2 4 4 4 4 2 4 4 5 5 5 7 2 7 6 8 13 5 7
7 9 13 13 11 10 10 11 12 12 11 10 9 12 13 13 13 13 10 9 9 5 6 8 8 2 8 6 3 8 4 5 5 4 3 7 4 3 2 4 8 6 3 1 6 1 7
10 8 6 5 4 7 8 9 10 11 11 12 12 11 11 10 10 10 10 8 5 6 6 10 3 4 10 9 3 7 8 5 2 4 5 7 2 2 4 2 5 3 4 4 8 4 2
13 10 6 5 5 5 5 9 11 10 9 11 10 10 11 11 9 8 9 5 3 5 4 5 5 3 6 5 4 3 6 5 4 2 1 2 4 1 2 4 5 4 3 3 5 7 3
14 12 6 3 5 4 5 5 9 9 9 10 11 10 10 8 9 16 10 4 3 2 2 10 6 5 2 3 4 4 5 5 3 2 5 2 4 8 10 9 7 7 9 9 6 6 6
13 11 8 5 6 5 4 6 4 2 6 8 8 9 10 9 16 16 6 4 5 2 8 15 17 16 16 6 7 5 5 5 6 7 4 2 6 14 9 10 8 10 13 11 6 4 5
12 12 10 8 10 7 4 4 4 5 4 3 8 9 9 14 17 7 3 5 2 1 4 7 13 10 12 13 13 17 9 6 6 7 6 8 9 5 9 11 12 12 10 5 3 4 4
11 8 11 13 11 11 6 0 4 5 5 5 4 8 16 22 9 5 3 4 3 1 4 8 7 8 9 8 6 12 11 10 6 13 4 8 12 16 15 10 7 4 3 0 3 5 3
14 11 11 12 14 14 7 4 4 4 4 5 3 17 26 18 10 6 8 7 5 4 4 5 5 6 6 8 4 2 5 5 14 6 7 9 3 1 3 5 2 4 1 3 2 3 4
16 15 14 13 11 11 10 8 6 5 2 2 6 19 23 5 2 5 5 8 4 5 12 4 3 5 7 4 3 3 4 4 4 4 4 9 2 4 6 4 4 5 4 6 4 3 4
18 17 15 15 13 12 11 9 7 5 3 1 11 19 14 6 5 5 9 4 4 7 4 6 5 6 4 6 4 4 6 4 5 4 3 4 6 9 5 5 4 4 6 4 5 2 7
21 20 19 16 15 13 13 11 9 8 6 3 7 15 5 3 2 9 4 3 7 8 8 4 5 5 7 7 6 8 6 4 5 3 2 3 6 2 2 3 8 5 8 7 6 4 5
22 21 20 19 16 14 13 12 11 9 7 6 4 4 1 3 2 2 7 6 9 6 5 4 2 4 5 6 6 6 9 8 9 10 8 5 5 1 4 2 4 1 2 4 1 0 3
24 23 22 20 18 16 15 14 13 11 7 6 3 3 3 4 6 3 5 10 6 4 5 4 2 7 10 8 7 9 9 7 6 9 7 4 2 3 1 4 3 5 5 2 2 4 8
24 24 23 22 20 18 16 15 14 11 10 8 3 3 3 8 7 3 6 7 10 7 5 1 1 5 3 5 8 6 10 2 7 4 8 4 4 3 3 3 4 2 1 1 3 4 5
23 25 24 23 21 20 19 17 15 12 11 9 4 4 5 9 6 2 7 9 5 8 4 7 4 4 6 3 6 7 9 1 7 9 8 3 5 2 6 5 4 3 4 6 5 6 4
25 24 22 22 21 21 20 19 17 16 16 4 3 3 2 1 7 8 3 13 4 3 13 4 4 6 6 3 3 2 4 5 5 4 8 7 1 2 7 5 4 4 0 2 3 2 7
25 25 25 26 26 22 21 20 20 19 18 5 3 4 1 2 1 15 11 11 13 8 11 5 3 4 3 4 3 3 2 4 4 4 6 8 4 7 8 5 3 3 5 5 4 2 4
27 25 24 24 24 23 24 23 23 21 20 9 5 5 6 10 10 15 10 6 15 13 10 4 6 9 6 3 5 4 2 2 6 3 4 5 5 3 3 4 4 6 11 13 8 12 7
28 26 26 25 25 25 25 25 25 24 22 9 5 5 1 3 12 17 13 14 16 13 8 7 13 8 8 8 10 9 10 4 6 2 4 2 2 4 5 7 8 13 18 15 16 11 7
28 28 28 28 28 26 28 28 28 26 23 4 6 2 5 9 12 12 18 26 16 6 6 17 8 5 9 9 5 5 6 8 9 9 6 6 5 4 5 4 8 9 11 11 4 7 7
31 31 31 31 30 29 29 28 29 30 28 3 4 2 3 4 12 21 23 20 14 13 10 4 10 7 6 8 7 6 8 6 9 5 7 7 6 4 3 3 5 7 3 4 6 2 4
34 34 33 33 32 31 31 30 31 32 31 9 3 5 3 3 13 11 15 16 13 11 5 6 4 8 9 6 5 5 5 4 3 6 6 6 5 3 3 4 7 3 4 4 4 5 8
36 37 37 36 35 34 32 30 31 34 32 13 9 3 3 4 10 12 14 10 10 10 4 1 4 4 3 4 4 5 5 4 4 2 7 6 4 5 3 4 5 4 2 4 2 6 12
40 39 39 38 37 35 34 32 31 33 32 13 6 14 4 3 3 9 9 13 6 5 4 4 6 4 5 3 3 3 4 8 6 6 5 5 2 10 6 4 8 3 5 4 5 6 12
44 41 41 41 39 37 36 33 33 34 32 19 11 9 9 3 4 1 3 5 5 6 7 7 5 1 4 4 5 5 4 5 3 4 7 8 8 5 5 4 11 2 4 6 4 4 12
45 42 44 42 41 40 38 35 34 33 33 27 6 9 8 7 4 2 3 4 3 7 8 5 5 6 6 4 4 3 2 2 6 4 3 5 8 6 8 7 1 2 3 2 4 6 6
Wind_Direction
272 278 277 274 274 282 276 316 239 222 222 222 222 221 220 225 228 225 229 244 270 308 326 335 338 335 354 349 253 174 190 251 308 320 313 339 328 9 297 303 322 203 256 304 291 269 268
238 240 244 246 256 258 255 252 258 276 232 225 225 219 220 223 225 223 226 228 246 267 321 332 338 331 19 299 312 156 207 150 278 323 314 325 299 294 259 298 323 312 318 309 297 296 264
239 272 240 240 223 236 240 231 233 237 257 244 224 220 217 221 216 215 221 236 260 282 331 327 339 347 307 238 183 333 224 210 198 208 292 301 318 8 343 318 352 308 312 333 285 288 288
274 307 234 237 217 230 241 238 231 227 218 236 226 240 221 220 220 215 210 208 236 286 320 310 329 55 257 273 289 297 210 295 241 256 217 278 304 296 258 313 347 328 311 262 290 311 269
275 279 268 257 229 235 243 245 244 239 223 227 218 224 233 214 216 212 197 203 250 301 301 295 300 102 263 296 239 236 168 231 285 277 271 271 31 220 347 37 349 281 252 239 304 322 318
251 257 255 264 238 254 274 268 255 245 240 229 226 207 224 214 211 190 151 114 9 313 279 223 264 20 256 242 213 217 176 183 220 288 38 227 47 258 23 109 228 242 247 295 271 298 33
250 245 250 307 235 242 292 312 255 231 234 235 215 213 210 203 193 134 110 89 217 259 245 207 198 245 291 205 115 213 180 161 209 112 195 220 121 227 225 214 230 276 278 268 254 266 339
240 236 236 248 294 249 274 305 354 251 236 226 220 199 201 186 150 135 112 153 248 122 288 236 250 243 265 308 280 237 129 163 162 219 165 325 230 240 235 249 236 248 261 265 255 282 317
226 226 231 245 263 260 231 317 357 353 334 255 206 200 180 141 130 119 171 206 327 153 267 250 220 226 228 197 233 248 180 184 180 214 224 200 237 276 227 253 256 263 249 266 279 311 320
216 218 238 231 238 263 239 281 317 333 348 342 219 190 137 128 125 148 206 213 269 345 300 266 221 238 182 180 231 218 194 173 193 229 198 246 241 231 255 250 221 258 273 139 48 46 288
221 212 229 238 225 237 219 218 269 294 337 356 288 145 145 154 129 177 211 146 149 57 292 232 167 144 170 163 147 80 171 158 213 186 154 234 317 7 266 236 123 179 110 72 76 67 314
216 216 224 221 222 216 214 217 231 244 273 344 166 160 154 83 103 228 147 119 87 75 245 268 141 160 122 153 152 108 109 66 137 186 246 250 269 275 227 280 200 165 86 32 41 111 262
219 210 209 220 217 213 211 204 206 217 206 132 178 169 166 161 190 163 123 115 126 201 280 195 182 167 151 163 152 143 150 155 160 134 264 344 256 261 219 256 213 121 74 352 324 1 233
230 214 202 215 214 213 209 202 205 204 204 172 187 179 197 187 320 150 95 114 206 200 234 9 128 126 180 160 212 177 141 186 256 127 81 178 316 229 296 183 196 190 155 166 230 227 271
230 224 216 202 206 209 216 198 196 200 196 188 150 169 190 198 144 129 142 210 211 188 182 281 143 162 240 217 165 146 180 191 200 169 179 192 250 268 94 108 111 191 134 196 177 131 261
237 222 216 209 202 197 207 213 196 185 186 187 118 147 186 145 111 113 194 221 236 205 329 26 277 200 186 208 180 175 175 199 208 189 158 221 283 255 35 83 20 148 170 62 355 277 260
239 226 214 207 203 201 201 208 200 185 184 170 112 174 153 133 94 175 193 232 245 254 292 309 318 302 276 184 202 200 194 198 151 122 130 133 137 263 57 145 179 10 290 183 187 177 234
241 231 216 210 204 201 203 201 188 185 188 173 162 190 181 145 145 170 189 202 228 254 230 247 287 205 252 296 212 200 198 148 147 148 144 142 141 207 229 276 285 201 229 199 201 241 239
230 225 221 209 209 204 201 195 199 196 196 135 174 129 280 217 182 203 238 230 232 272 224 241 230 194 214 202 325 163 97 357 69 96 154 176 139 21 336 356 28 78 203 183 223 128 213
227 219 215 211 206 206 200 197 196 203 207 166 142 144 243 136 290 208 194 215 221 203 254 255 261 221 250 199 189 163 136 26 59 76 104 87 146 169 220 205 157 250 245 262 194 193 241
224 218 212 209 209 208 204 202 201 202 201 181 192 193 176 182 209 204 185 226 212 225 210 213 220 221 195 205 168 129 40 56 43 109 58 103 192 144 246 238 249 231 254 266 241 244 216
221 216 212 211 211 210 211 205 200 204 194 193 168 169 230 197 197 200 200 213 232 212 220 200 227 222 220 199 195 178 158 173 184 162 115 42 207 93 311 262 249 263 260 251 243 245 241
220 215 211 208 208 210 209 207 205 205 190 171 195 230 154 169 183 191 207 216 218 179 230 230 235 204 216 208 154 122 141 152 160 147 153 141 123 79 270 307 299 279 240 223 219 218 218
224 218 212 210 209 207 204 204 205 206 200 178 195 129 165 196 176 200 209 215 217 205 222 292 206 186 221 119 93 51 61 103 149 175 140 133 121 129 250 353 252 244 228 238 218 231 145
223 219 216 211 209 208 206 204 202 205 206 194 182 200 180 188 201 188 209 202 201 232 228 211 237 199 165 72 82 68 357 24 213 194 167 136 127 168 172 216 277 251 220 185 182 251 160
224 220 215 211 207 204 205 202 198 202 206 199 199 172 216 222 206 177 189 176 183 210 185 198 341 53 85 102 100 150 184 181 220 252 179 125 138 138 169 239 251 242 199 147 124 286 157
223 216 213 210 206 201 201 198 194 197 202 192 203 197 266 181 262 170 170 192 152 157 163 142 145 313 57 78 118 157 212 182 201 187 164 164 194 203 211 242 281 196 150 141 92 246 156
222 216 210 206 201 197 196 193 191 193 197 189 199 170 196 267 278 204 185 149 138 174 160 172 107 216 101 163 144 194 183 212 191 170 169 179 177 188 189 197 256 125 99 174 196 37 149
213 209 203 200 198 192 190 190 190 191 192 184 186 159 173 252 260 260 236 199 244 204 136 185 159 158 169 130 182 162 207 151 169 214 179 197 189 183 184 212 216 263 212 145 142 139 155